Wind_Speed
37 38 38 38 41 43 42 43 42 40 39 38 37 35 33 34 34 34 35 33 32 32 32 32 31 29 28 27 26 25 25 25 26 25 24 24 22 21 22 22 21 21 20 18 18 19 19 18 18 19 20 21 22 23 24 21 21 22 20 18 16 15 16 16 12 11 14 13 14 13 12 13 13 10 10 11 11 11 12 11 11 9 8 8 7
41 41 40 40 43 44 44 43 42 41 40 39 38 35 32 34 35 35 36 34 32 33 33 31 30 29 28 28 27 26 26 27 28 27 26 25 23 22 23 24 23 20 17 17 18 18 17 17 18 18 18 21 23 25 24 19 17 20 18 17 16 15 16 17 14 13 15 14 14 16 16 15 13 10 9 11 12 13 12 9 11 13 9 7 9
42 42 41 42 44 46 45 44 43 42 40 39 38 35 33 34 35 35 36 34 32 32 33 31 31 30 29 28 28 26 26 26 27 27 27 26 24 23 24 25 23 20 19 20 19 15 15 17 18 19 19 20 21 21 20 16 14 15 16 16 16 14 16 17 16 15 15 15 15 16 17 15 12 10 9 10 11 11 9 7 7 8 7 8 13
41 43 44 44 45 46 47 45 44 43 40 39 39 35 33 35 34 34 35 35 33 32 32 32 31 30 30 29 29 28 26 26 25 26 26 25 24 24 25 25 23 22 23 22 18 15 16 17 18 20 21 21 20 19 17 15 14 13 14 15 16 15 15 16 18 15 13 14 14 13 14 14 10 9 9 9 12 13 10 8 6 9 11 11 11
42 45 46 46 46 47 47 47 46 44 40 40 39 35 34 35 35 34 35 36 35 32 32 32 29 29 30 30 29 28 27 27 27 27 25 23 23 24 25 24 22 21 22 20 16 16 17 18 19 21 22 21 19 18 18 18 17 16 15 15 16 17 16 16 18 18 12 11 12 10 11 12 10 8 9 9 11 11 9 9 8 9 11 9 8
44 46 47 48 48 48 48 48 47 44 41 40 39 36 35 35 35 36 35 35 35 33 33 31 29 28 30 29 29 29 29 28 27 27 25 23 24 24 23 22 20 20 20 20 18 19 19 18 20 22 22 21 19 17 19 21 21 19 18 17 16 17 19 18 19 20 15 12 12 11 12 12 11 9 9 10 11 10 8 8 9 11 11 9 9
45 47 48 48 48 49 50 49 47 44 42 40 39 38 37 36 36 36 36 35 34 33 32 31 30 29 29 29 29 29 29 28 28 27 24 24 25 24 22 22 21 20 22 22 21 21 21 19 20 22 21 20 20 19 21 23 22 19 20 19 17 16 20 21 19 19 18 15 13 13 13 14 13 10 6 8 12 12 10 8 7 8 10 10 10
46 48 48 48 48 49 49 49 47 45 43 41 40 39 38 37 36 36 37 36 34 34 32 30 31 31 29 29 29 30 30 29 29 27 25 26 26 23 25 26 24 23 24 24 23 22 22 20 20 22 21 20 20 20 21 22 21 20 20 21 20 17 19 22 20 18 19 18 15 14 15 14 13 10 7 10 13 11 8 6 8 7 6 6 8
46 47 47 47 47 47 48 48 46 45 43 42 41 40 39 39 37 35 37 38 36 35 33 29 31 33 31 30 30 31 32 31 31 29 27 28 26 23 26 28 26 25 25 23 23 23 22 21 22 22 21 20 21 20 21 22 21 22 23 23 22 20 19 20 19 18 19 19 17 17 16 13 12 11 11 13 13 9 7 9 11 9 7 8 8
45 46 46 46 45 44 47 48 45 44 44 44 43 41 40 40 38 35 38 39 37 36 33 30 33 34 34 33 32 33 33 32 32 30 27 28 28 26 27 28 25 25 25 23 24 24 23 22 23 22 21 20 20 21 21 22 21 23 25 24 24 24 22 19 18 19 20 20 19 18 15 13 13 13 12 12 11 10 11 13 12 9 7 9 8
46 46 43 43 43 41 44 46 45 44 45 44 44 42 40 41 40 37 38 40 38 34 33 33 35 35 35 35 34 34 35 33 33 30 25 25 28 29 28 27 24 25 25 24 24 24 23 23 23 22 21 20 21 22 22 22 22 23 24 24 24 25 23 20 19 21 22 21 19 16 13 13 14 13 12 12 12 13 14 13 12 9 9 10 7
46 45 41 39 40 40 41 44 45 44 44 45 45 42 41 42 42 39 39 41 39 36 35 36 37 36 35 34 34 36 36 36 34 30 26 27 30 32 29 24 23 26 25 24 24 24 24 24 23 22 22 22 22 23 23 23 22 23 24 23 22 23 22 21 22 23 23 20 16 13 12 14 14 14 14 15 14 15 14 12 10 9 8 10 9
43 44 41 39 39 39 40 43 44 44 45 45 45 43 43 43 43 41 39 40 40 38 37 38 38 37 34 33 35 38 38 37 35 30 28 31 33 35 30 23 22 25 25 24 25 24 24 24 23 23 24 23 23 24 23 23 23 23 23 23 21 21 20 22 23 23 21 19 14 12 13 16 15 15 18 18 16 15 13 9 8 8 7 8 9
42 42 41 40 38 38 40 41 42 42 44 45 44 44 45 44 43 42 40 39 40 40 39 39 39 38 37 35 37 39 38 37 35 31 30 34 36 36 32 25 22 24 25 24 24 24 24 24 24 24 24 24 24 24 24 24 24 23 23 22 21 20 20 22 23 22 20 18 16 14 15 17 17 17 19 20 17 15 13 9 8 10 11 9 6
41 41 40 39 38 39 40 40 41 41 42 44 44 44 45 44 42 43 42 39 40 42 41 41 41 40 40 38 38 39 39 38 36 33 32 34 36 36 32 26 24 25 25 25 24 24 24 24 23 23 24 23 23 24 24 24 24 23 23 22 21 21 21 22 22 21 20 19 19 19 19 19 21 21 20 20 17 14 13 11 10 11 11 8 4
39 39 39 38 38 39 40 41 42 42 42 44 44 43 45 45 44 44 43 41 41 42 42 42 43 42 41 40 40 41 40 39 37 34 33 33 32 32 30 27 26 26 25 25 25 23 23 24 23 22 22 22 21 23 24 24 24 24 23 22 22 23 23 22 22 21 21 21 21 22 22 22 23 23 21 20 17 14 12 11 10 9 8 6 4
38 39 39 39 38 39 41 42 42 42 42 44 45 44 45 46 45 45 44 42 43 43 43 43 42 42 42 42 42 42 42 40 36 33 32 32 29 28 30 30 27 26 26 25 25 24 23 23 23 22 21 21 21 22 23 23 23 23 23 23 24 24 23 22 22 22 23 22 22 23 25 24 22 21 20 18 17 15 13 12 10 8 7 5 1
39 41 41 41 40 38 40 42 43 42 43 45 46 46 47 47 46 46 45 44 44 44 44 43 42 41 42 43 43 43 43 41 36 31 31 32 30 28 30 31 29 27 27 26 26 25 24 23 23 22 22 21 21 22 23 22 22 23 23 24 25 24 23 23 23 24 24 23 23 24 26 25 23 21 19 18 17 16 14 12 10 9 8 5 2
40 42 42 42 41 39 39 42 45 44 43 45 47 48 48 47 46 46 46 45 44 43 44 43 43 43 42 42 43 44 44 41 36 31 31 33 32 30 31 32 30 28 28 27 27 26 25 24 23 23 22 22 21 21 22 21 21 22 23 24 25 24 23 22 23 24 24 23 23 24 25 25 24 22 21 20 19 17 15 13 11 10 9 7 6
39 39 40 42 43 42 40 41 43 43 44 46 48 48 47 46 46 47 47 46 44 43 43 44 44 44 43 42 42 44 43 40 36 33 34 35 35 33 33 33 31 30 29 28 28 27 26 26 25 24 23 23 22 21 20 19 21 22 23 24 24 22 21 22 22 22 22 21 22 23 24 24 23 22 22 22 21 19 16 13 12 11 10 10 11
40 38 39 43 45 44 42 41 40 41 43 46 47 48 48 47 47 48 48 47 45 44 44 45 44 43 42 41 41 43 41 38 36 35 36 37 35 34 35 35 32 30 30 29 28 28 27 27 26 25 24 24 23 22 20 18 20 23 24 23 22 19 19 21 22 21 21 21 21 22 23 24 23 23 24 23 22 19 16 14 13 13 11 11 12
41 41 38 40 43 44 44 44 43 43 45 46 47 49 49 48 48 48 48 48 46 45 44 45 44 43 42 40 40 41 40 36 36 37 37 37 35 34 36 35 31 30 30 29 28 28 27 28 27 25 24 24 24 23 21 19 20 24 25 24 21 18 18 20 20 20 19 19 20 21 23 24 25 25 25 24 22 19 17 15 15 14 13 12 13
37 41 40 39 40 42 44 44 46 49 49 47 48 49 50 50 49 49 49 48 47 45 45 46 45 43 41 40 40 41 39 36 36 38 38 36 33 33 37 35 30 29 29 28 28 27 26 27 27 24 23 23 22 23 22 21 22 24 25 25 23 20 20 20 18 17 16 17 18 19 21 23 24 25 25 24 21 17 16 14 12 12 13 13 13
33 39 43 44 42 42 44 45 48 53 52 49 48 50 51 51 51 51 50 49 48 47 46 46 45 43 41 41 41 41 40 38 38 39 38 35 32 34 38 36 31 29 28 27 26 25 25 26 26 24 22 20 18 20 23 23 24 24 24 24 24 22 22 21 18 15 15 17 19 19 20 21 22 22 22 19 15 13 13 11 10 10 12 13 12
34 37 43 48 47 44 45 47 51 55 53 49 48 50 51 52 52 52 52 51 50 48 47 46 46 45 43 42 42 42 41 39 39 39 37 33 32 35 38 37 34 32 29 26 25 24 24 25 23 22 21 18 17 19 22 24 25 24 23 23 23 23 22 22 22 21 20 21 23 22 21 20 20 20 18 12 10 13 15 13 12 11 11 11 10
36 38 41 47 49 48 47 49 53 54 52 48 48 51 52 54 54 54 53 53 52 50 48 47 47 46 44 42 41 42 41 40 39 39 37 33 33 37 39 37 36 34 31 28 26 24 24 23 22 21 20 18 17 18 20 23 25 24 24 24 23 23 23 23 25 26 26 26 26 26 24 21 18 17 15 12 13 16 17 15 14 13 13 13 13
36 38 41 46 50 49 49 50 52 52 50 48 49 51 53 54 55 55 54 54 54 53 51 49 48 46 44 42 42 43 43 41 40 40 39 37 37 39 40 39 38 36 33 31 28 26 24 23 22 20 19 18 17 17 18 21 24 25 25 24 24 23 24 24 26 28 28 27 26 26 24 22 20 19 17 16 18 19 17 16 15 15 16 16 17
35 36 39 46 51 51 50 51 50 49 48 49 51 53 53 54 55 56 56 56 56 55 53 51 51 49 47 45 44 44 44 44 44 44 43 42 43 44 43 42 41 39 36 34 31 28 26 25 24 22 21 21 20 19 20 22 24 25 25 23 23 22 23 23 25 28 29 27 25 23 21 20 20 19 18 17 19 20 20 20 20 19 18 18 18
37 34 33 38 48 52 52 51 49 47 47 49 52 54 55 56 56 55 55 56 56 55 54 53 53 52 51 49 48 48 49 50 49 46 45 45 45 44 44 44 43 41 39 36 33 31 29 28 28 26 25 25 23 22 23 24 24 24 24 22 22 21 21 22 24 26 28 28 26 24 21 19 18 16 15 16 18 20 21 23 23 21 21 21 22
41 39 35 36 44 48 47 46 46 46 45 47 51 54 54 54 54 54 53 54 53 53 53 53 53 51 49 49 50 51 52 51 47 43 43 43 41 41 42 42 42 42 40 37 34 32 31 30 29 28 27 26 25 24 24 25 24 24 23 22 21 20 20 21 23 24 25 26 26 25 24 22 20 16 15 17 19 20 22 23 22 21 20 20 22
44 44 41 39 41 43 43 44 45 46 45 46 49 51 51 51 53 52 50 50 50 51 51 53 53 51 47 46 46 46 45 45 42 41 41 39 38 39 41 41 41 42 40 37 34 33 32 31 30 29 28 27 26 25 25 24 24 23 22 20 18 18 19 21 22 22 23 24 25 25 24 23 21 18 17 19 20 20 20 20 20 20 19 18 19
42 42 41 39 38 40 44 47 47 46 45 46 47 47 48 49 50 49 48 48 49 50 51 52 53 51 48 45 43 42 42 43 40 37 38 38 38 40 41 40 40 40 39 36 34 33 32 30 29 28 28 27 27 26 25 24 23 21 20 18 17 14 14 16 19 20 21 22 23 23 23 22 20 19 19 21 22 22 21 20 21 21 20 19 19
37 38 38 38 38 39 42 45 46 45 46 46 46 46 47 49 49 48 47 47 48 49 49 48 49 48 47 46 44 43 44 43 38 34 35 36 37 39 40 39 39 38 38 37 35 33 31 28 26 25 25 25 25 24 23 23 22 21 20 19 17 14 12 12 14 17 20 21 21 21 21 22 22 22 22 22 23 23 23 22 21 20 20 21 22
31 33 34 36 40 43 43 43 43 44 46 47 46 47 48 48 48 46 45 46 47 48 47 46 45 44 44 45 46 45 45 41 36 33 35 35 35 37 39 39 39 39 38 37 36 34 32 28 24 22 21 22 23 23 22 21 21 21 21 19 18 17 16 14 13 14 17 19 21 22 21 20 22 24 24 24 24 24 23 22 22 21 21 21 21
24 27 30 34 38 42 43 42 42 44 46 46 45 46 47 47 47 46 46 47 47 47 48 47 45 43 43 45 46 45 43 40 36 34 35 36 37 38 40 42 43 43 42 40 38 36 34 31 26 22 20 21 22 23 23 21 20 20 20 21 22 22 21 18 17 17 17 18 21 23 23 21 21 23 25 25 25 24 23 23 23 23 23 21 20
18 22 24 27 32 35 37 37 38 41 44 44 43 42 42 43 44 45 47 47 44 44 47 48 45 42 43 44 44 43 42 41 39 37 36 38 40 42 44 46 46 47 46 44 41 39 37 34 30 25 22 22 22 23 23 22 20 20 20 21 23 23 21 20 19 20 20 18 18 21 24 24 22 22 24 26 27 26 26 25 25 25 25 24 22
7 15 18 20 24 27 28 29 30 33 37 39 39 39 40 41 43 45 47 47 44 43 45 46 44 42 41 42 43 44 45 44 42 40 38 39 41 43 45 46 47 47 46 45 44 42 38 34 31 28 25 23 22 23 23 23 23 23 23 21 21 21 22 23 22 23 24 22 20 20 23 24 24 23 23 25 26 26 26 27 27 27 27 26 24
5 3 7 11 15 20 24 27 29 31 31 32 34 36 39 41 44 46 48 48 47 45 44 44 44 42 40 40 43 46 46 44 42 40 40 41 42 43 45 46 46 46 45 45 45 43 38 35 33 30 27 26 25 24 24 23 23 24 24 23 23 24 25 27 28 28 28 27 25 23 23 24 25 25 25 25 25 25 25 26 27 28 27 27 26
7 5 2 4 9 17 23 27 28 28 28 28 30 33 34 37 40 43 45 47 47 46 44 44 43 41 39 40 43 46 46 45 44 44 45 45 45 45 45 46 47 47 46 45 44 41 38 37 36 33 31 29 27 26 26 25 23 24 25 26 27 28 27 25 25 26 26 24 23 23 24 25 24 25 25 26 26 25 25 26 27 27 27 26 26
7 5 4 3 5 11 18 21 21 21 23 25 27 30 31 33 36 37 38 40 41 42 42 42 42 41 41 42 45 47 48 47 47 48 49 48 47 45 44 46 48 48 47 44 42 40 40 39 38 35 32 29 26 26 26 26 26 27 28 29 30 29 26 25 25 26 26 25 23 24 26 25 23 23 24 26 26 26 26 26 27 27 27 26 26
10 7 5 3 2 5 12 16 16 16 17 20 25 29 32 34 35 35 36 37 37 37 39 40 42 43 43 45 47 49 50 50 49 50 50 49 48 46 45 45 46 47 46 44 42 42 42 41 38 34 31 30 29 28 26 27 28 29 29 29 27 25 24 25 26 26 26 27 26 27 27 27 24 23 23 23 23 24 25 26 26 26 27 27 26
13 9 7 5 3 2 7 12 14 15 16 19 23 28 31 33 34 34 34 35 36 36 37 39 40 42 44 45 47 49 51 52 52 51 51 49 47 45 44 44 44 45 45 44 44 44 44 41 38 33 30 30 30 29 27 28 30 29 27 27 27 25 24 25 25 25 25 24 22 22 23 24 23 22 21 21 21 22 23 25 26 26 26 27 27
13 11 8 6 5 4 4 6 9 12 14 16 20 24 28 30 30 30 30 32 34 35 35 37 38 40 42 44 46 48 51 53 53 52 52 51 48 46 46 46 46 45 44 44 45 43 41 38 36 34 32 30 30 31 31 30 30 28 27 27 27 26 25 26 26 25 26 25 21 18 18 20 22 22 22 22 21 21 23 24 25 25 25 26 27
16 14 11 8 6 6 6 5 6 6 8 10 13 17 21 24 25 26 27 28 31 32 34 35 38 40 41 42 44 47 51 53 52 52 53 52 50 48 47 47 46 45 45 44 43 40 37 35 34 34 33 32 32 32 33 31 28 28 29 29 28 28 28 29 28 27 28 27 25 21 19 20 22 23 24 24 23 23 23 24 25 25 25 25 26
19 18 15 11 9 7 6 5 5 6 6 6 8 11 15 18 21 23 24 26 29 31 33 35 37 39 41 42 44 47 51 52 51 52 53 52 50 47 46 46 45 44 43 42 39 37 36 34 32 31 33 34 33 32 32 32 31 31 31 31 30 29 29 28 28 28 27 26 25 23 22 21 21 22 23 24 25 24 24 24 24 25 26 26 26
17 17 17 15 13 11 8 6 6 5 5 5 7 8 11 14 17 19 20 23 25 27 30 33 35 37 39 41 42 45 49 50 51 51 51 50 48 46 44 44 43 42 40 39 38 37 35 32 30 31 34 35 33 32 31 32 33 32 32 32 31 29 27 26 26 27 26 25 25 24 23 21 20 20 20 22 24 25 24 23 24 26 28 28 28
18 17 16 15 14 13 11 9 8 7 6 6 6 6 8 11 13 14 16 18 20 21 25 30 32 34 36 37 38 41 46 50 51 51 50 48 46 45 43 42 42 40 38 38 37 36 33 31 32 35 36 34 33 32 31 30 31 30 30 30 29 27 24 23 23 23 22 21 21 21 21 21 20 20 19 20 22 23 24 23 23 24 27 29 29
23 21 19 16 14 13 12 11 10 9 9 8 7 7 7 9 10 10 11 13 15 18 22 26 28 30 32 32 32 35 40 44 46 47 47 46 45 43 42 42 41 40 39 38 37 36 36 35 36 36 33 30 28 28 28 29 31 31 29 28 26 24 22 21 20 19 18 16 16 18 21 21 21 20 19 19 19 20 23 24 22 21 22 24 27
23 23 22 20 16 12 11 11 11 10 9 9 8 7 7 7 8 8 8 9 11 14 17 21 23 25 27 27 28 30 33 34 35 40 43 42 41 41 40 41 41 42 41 40 37 35 36 37 37 35 32 28 27 27 30 32 32 30 26 25 24 23 22 20 18 17 16 15 14 16 19 21 21 21 20 19 17 17 19 23 22 19 19 20 23
20 21 21 22 20 17 14 12 11 10 8 8 8 7 6 5 5 5 5 4 6 8 11 14 17 20 21 21 22 26 30 27 27 33 38 39 38 38 39 41 43 45 43 40 36 33 34 35 35 34 31 27 26 28 32 33 30 26 23 22 22 21 19 18 16 15 16 15 15 15 17 19 22 23 23 22 19 17 17 20 21 20 19 19 20
16 17 18 20 20 19 17 14 12 10 10 10 9 9 8 8 8 9 8 7 5 3 2 2 5 9 13 14 17 24 28 23 20 24 30 32 33 35 38 39 41 41 39 37 35 35 35 34 32 30 28 25 24 26 28 29 27 24 22 21 21 19 18 17 16 16 17 17 17 18 18 19 20 21 23 24 23 21 19 20 21 22 21 21 21
Wind_Direction
210 213 208 205 203 200 203 205 204 202 197 197 202 203 200 200 200 198 198 201 204 205 206 207 208 208 207 208 208 209 211 211 209 207 207 208 209 211 213 215 217 219 223 226 225 224 225 229 228 222 217 207 202 214 222 220 217 218 216 210 216 229 218 212 223 210 199 208 208 206 223 233 235 242 252 265 280 286 290 302 315 325 332 329 325
207 210 208 207 205 202 204 205 204 202 197 196 200 201 200 199 200 199 198 201 204 203 204 206 207 207 207 207 208 209 211 210 209 207 206 208 207 207 213 216 219 223 224 225 228 228 227 231 235 231 223 219 216 217 224 230 228 223 215 205 211 225 219 211 216 220 213 209 208 208 217 233 244 241 235 246 260 272 284 308 329 333 335 326 308
203 205 206 208 207 204 204 204 203 201 197 196 198 199 199 198 199 201 198 199 203 204 203 204 205 207 207 205 206 208 209 211 212 210 208 209 209 209 217 222 223 222 220 224 231 235 233 230 232 232 227 228 228 224 228 235 230 225 218 204 203 217 222 212 209 222 230 221 215 220 227 238 241 229 228 245 250 255 274 301 311 303 292 282 282
202 203 205 207 206 204 203 202 201 200 197 196 197 197 198 198 199 200 197 197 202 204 202 202 204 205 204 203 204 206 208 210 212 211 209 210 210 212 219 226 227 221 219 228 236 236 234 227 225 230 231 232 233 227 225 224 213 213 217 209 201 207 219 215 205 213 236 235 222 225 239 249 242 214 210 241 252 253 270 285 261 247 265 279 281
203 204 206 207 206 205 204 203 202 199 197 197 198 197 198 198 198 197 196 196 202 203 200 201 204 204 203 205 206 207 208 208 210 212 210 208 208 212 218 226 227 220 220 230 233 230 232 226 220 229 233 235 238 232 221 213 204 201 207 211 209 207 213 216 206 202 220 235 220 211 226 242 244 220 198 216 249 264 282 296 287 276 285 296 294
203 205 207 207 207 206 204 202 201 199 198 198 198 197 198 199 197 196 196 197 201 203 200 199 201 203 203 204 205 206 208 210 213 214 210 206 207 212 219 226 226 220 221 224 221 223 232 228 222 231 238 239 243 237 220 213 208 201 199 205 211 211 211 213 209 203 210 224 222 213 213 223 237 236 211 210 233 250 260 271 282 290 295 294 292
203 205 206 206 206 206 204 202 199 198 197 198 198 198 199 199 198 196 196 198 200 202 201 198 199 202 202 202 203 206 208 211 215 215 209 207 209 209 215 225 227 222 221 220 216 222 232 232 228 233 239 240 240 232 220 217 214 207 202 201 204 213 215 214 212 208 209 215 220 222 217 217 230 238 226 220 231 245 255 250 251 278 295 295 293
206 207 206 205 205 205 203 201 200 199 198 197 198 199 200 200 199 198 197 199 200 201 201 198 198 200 202 203 205 208 210 211 213 212 206 207 212 210 211 222 226 222 218 217 219 225 230 232 232 235 237 236 234 226 218 220 216 208 206 203 201 212 220 218 216 213 211 210 212 220 220 223 234 230 208 212 226 246 268 245 220 234 258 279 297
206 209 207 204 205 205 202 201 200 200 199 198 199 200 200 200 201 200 200 201 201 201 201 199 199 201 201 203 205 209 213 213 213 210 203 205 213 211 212 223 227 220 216 215 220 226 229 230 231 234 235 231 229 224 219 222 217 210 211 208 204 211 220 219 216 211 211 208 207 217 222 224 231 226 211 214 224 238 248 234 234 244 240 240 265
207 210 209 204 203 203 202 201 201 201 200 199 200 201 201 200 201 201 201 202 202 202 200 199 202 203 201 203 205 208 213 216 216 215 206 205 210 210 217 228 226 215 213 216 221 225 226 227 229 234 235 230 229 229 226 226 224 219 221 217 210 214 218 217 212 209 210 209 207 216 222 216 221 230 229 226 226 227 231 238 252 260 243 236 248
208 210 210 206 203 202 201 200 201 202 201 200 200 200 200 201 202 202 201 200 201 201 197 198 204 204 202 204 204 206 212 216 217 217 208 203 209 214 224 232 220 208 212 218 223 225 224 227 232 236 237 234 232 232 231 231 230 227 228 225 220 221 221 217 215 212 212 212 211 215 217 211 219 229 227 221 221 229 238 248 257 256 240 236 243
208 209 210 208 203 200 199 199 201 201 201 200 200 200 200 201 202 202 201 199 199 198 196 198 204 205 204 205 205 206 212 215 217 217 206 199 209 220 229 229 212 206 215 220 223 225 225 230 235 237 238 237 235 235 234 233 233 230 230 230 228 227 225 221 222 221 218 216 211 207 209 212 218 223 219 215 220 233 247 256 261 259 248 237 231
209 208 209 209 206 202 201 201 201 201 201 201 201 201 200 201 202 203 202 199 198 198 198 199 204 206 205 205 205 209 213 214 216 216 203 197 208 220 228 227 213 210 218 222 224 226 227 233 238 237 239 238 235 236 236 234 233 231 231 231 229 229 227 225 227 229 227 220 206 199 212 218 219 221 222 220 221 232 247 264 270 267 267 257 238
210 208 208 209 207 204 203 203 201 200 201 202 201 201 201 201 202 204 202 199 199 199 199 199 203 206 205 204 207 211 214 214 215 213 204 201 209 219 226 227 217 215 221 223 225 228 229 236 241 239 240 240 237 236 236 234 233 231 230 231 229 228 229 228 229 231 228 221 213 206 212 218 217 218 221 223 225 232 240 246 249 257 270 279 253
210 208 207 207 207 206 205 204 203 201 202 202 200 200 201 201 202 203 203 202 200 199 199 200 202 204 204 205 209 213 215 215 215 214 209 208 212 219 225 224 217 217 222 224 226 229 231 236 241 241 242 242 240 239 237 234 233 230 229 231 230 229 229 229 231 230 223 221 221 214 209 214 215 214 220 227 231 238 243 242 241 253 269 272 235
210 211 208 205 206 206 207 207 205 203 201 200 200 200 201 203 202 202 203 203 201 199 200 202 204 205 206 207 210 214 216 216 217 216 214 215 219 221 220 218 216 217 220 222 225 228 230 233 238 241 244 244 242 241 239 235 233 231 230 230 230 231 230 228 230 229 224 224 226 219 214 218 219 219 226 236 240 244 246 246 245 252 258 238 214
210 213 211 208 206 207 209 208 206 205 203 202 202 202 202 203 203 201 201 201 201 201 202 203 204 206 208 208 210 215 217 218 219 215 213 218 224 221 215 214 216 217 219 221 223 225 228 231 235 240 243 244 242 241 240 236 232 232 231 230 231 233 231 228 226 226 225 227 229 224 221 224 227 230 236 242 245 245 242 242 241 236 230 218 240
211 213 213 211 209 209 211 208 206 206 206 205 204 203 203 204 202 202 201 201 202 203 203 202 203 206 209 209 211 216 219 221 221 214 211 217 223 222 216 212 214 216 217 220 221 223 227 230 234 239 243 245 242 241 242 240 234 233 232 231 234 236 233 229 225 224 225 227 230 229 227 229 234 240 244 246 247 246 244 241 239 235 228 216 242
213 215 216 214 211 211 213 210 207 207 207 207 206 204 204 204 203 202 203 204 205 205 204 203 203 206 209 210 213 217 219 222 221 213 211 215 220 223 216 210 213 216 216 218 219 221 226 229 232 236 240 244 243 239 240 242 238 235 234 233 236 238 237 234 229 227 229 231 232 233 232 232 237 241 245 247 248 249 248 241 239 241 232 211 206
216 218 219 217 213 211 211 209 208 208 208 209 209 207 206 204 202 202 203 205 207 206 205 205 205 209 212 213 215 219 221 222 219 213 213 216 219 222 216 209 212 215 215 218 220 220 224 229 230 233 236 241 243 239 239 241 237 235 235 236 238 240 239 237 232 228 231 234 236 238 235 233 237 240 242 246 247 250 250 245 242 243 238 224 212
218 219 221 220 217 214 212 211 210 211 213 214 211 208 207 205 203 203 204 205 207 206 205 205 206 209 212 212 216 221 223 222 218 213 215 217 220 222 216 209 212 215 214 218 221 221 225 229 231 232 233 237 240 240 239 236 232 231 233 235 238 238 235 237 235 230 231 234 236 236 234 233 235 238 241 245 248 251 252 251 250 247 241 235 225
218 217 218 220 219 217 215 213 212 214 217 217 212 208 207 207 205 204 203 204 205 205 205 205 205 208 211 211 215 220 222 221 217 214 215 218 220 220 213 207 210 215 214 217 222 223 226 231 234 234 234 234 236 239 240 235 230 230 230 230 232 229 225 231 237 235 234 237 237 234 231 232 235 238 242 245 247 252 255 253 252 250 245 239 236
220 219 218 218 217 216 215 213 212 214 216 215 212 209 208 206 204 204 203 204 204 204 205 206 206 208 211 212 215 220 221 219 216 215 217 219 219 216 209 204 207 215 216 218 223 224 225 231 235 235 234 234 234 236 238 234 230 231 230 230 230 225 219 221 231 239 238 238 238 233 230 233 237 239 243 247 250 253 254 250 247 251 250 241 236
229 225 223 221 217 215 214 212 210 212 214 213 211 209 208 207 206 206 206 206 206 205 206 207 207 208 209 208 210 217 220 218 216 216 217 218 216 210 205 202 205 211 215 218 222 223 224 229 234 234 235 234 232 233 234 233 233 234 234 233 231 227 222 219 220 228 228 225 229 230 229 234 238 240 244 251 257 260 259 258 259 260 254 240 229
238 231 224 221 217 214 213 211 210 211 213 211 209 208 208 206 206 206 206 207 206 204 204 205 205 204 205 205 207 214 218 216 214 214 214 215 211 205 202 203 205 210 214 216 218 220 222 227 230 232 234 234 229 227 229 231 234 235 235 234 230 228 228 222 216 219 219 216 222 230 234 238 243 246 246 242 246 253 251 250 258 262 256 247 242
242 237 227 221 218 216 213 212 212 213 212 210 209 208 207 205 204 205 205 205 204 202 202 202 202 202 204 205 207 213 216 214 211 211 210 210 206 201 200 202 205 210 214 213 215 218 219 221 224 227 231 233 231 228 226 226 230 232 231 231 229 227 227 222 219 223 225 224 226 232 238 242 245 246 241 220 217 236 241 242 249 249 238 234 241
242 240 234 226 220 216 213 212 212 212 211 210 209 208 206 205 204 203 203 203 203 202 202 202 202 202 203 203 204 209 213 211 209 211 209 204 198 197 199 202 205 209 211 210 213 216 214 213 218 222 227 230 229 229 228 225 227 229 230 230 231 232 232 228 224 227 232 233 235 238 242 243 240 242 240 223 212 220 229 234 238 233 226 228 238
240 240 234 224 216 211 211 213 212 210 209 208 207 206 206 205 205 205 204 203 202 202 202 203 205 204 202 201 201 206 212 213 213 213 210 200 193 193 198 202 204 207 209 209 209 211 210 210 212 214 217 221 221 222 223 222 224 228 231 234 235 235 236 234 230 230 233 235 236 238 241 242 240 240 238 227 218 220 225 228 228 224 225 231 239
238 239 230 212 203 202 206 210 212 210 208 208 208 209 208 207 207 208 209 207 206 206 207 208 209 207 204 203 203 206 211 217 219 216 208 199 194 195 200 203 204 206 209 210 209 208 208 209 211 212 214 218 220 221 221 221 222 226 230 234 236 236 236 235 234 234 235 235 235 234 232 232 235 235 227 223 224 225 225 226 229 231 234 237 239
235 239 232 213 201 199 202 207 210 211 209 208 209 210 211 211 211 211 211 212 213 214 214 213 211 207 205 205 208 211 216 221 221 212 202 198 198 200 204 205 204 205 208 211 211 210 209 208 210 214 217 220 223 225 224 223 224 228 231 234 237 238 238 237 237 238 237 235 236 236 233 230 229 226 220 221 225 225 224 227 233 240 244 242 238
232 236 235 223 211 206 207 211 213 212 210 208 208 209 210 213 215 215 216 217 217 217 218 217 213 209 205 205 209 214 221 226 223 210 201 199 200 202 205 206 204 204 209 212 211 210 210 211 212 215 219 223 226 227 227 227 228 231 234 236 236 237 240 240 238 236 237 236 236 237 238 236 229 221 219 222 222 222 227 233 236 240 244 240 234
233 234 232 225 218 213 213 215 217 215 211 209 209 209 210 212 215 218 221 222 220 220 221 219 216 212 209 208 209 212 220 226 224 212 202 200 202 204 205 206 205 205 210 215 215 211 210 211 214 216 219 223 226 227 226 225 226 228 231 235 236 236 240 244 239 233 232 236 237 237 235 232 223 215 218 222 221 221 227 232 236 239 241 236 233
231 230 226 221 219 216 215 216 218 216 212 211 210 210 211 212 214 216 219 219 218 218 218 216 215 214 212 211 212 215 220 225 222 209 199 199 202 204 205 206 206 206 208 211 213 211 209 210 212 215 216 218 221 223 221 220 221 222 223 227 231 235 241 246 243 236 231 233 238 240 236 227 218 214 218 223 224 225 227 229 234 238 236 232 231
227 227 224 219 216 215 216 217 218 217 216 216 214 212 212 212 213 214 216 216 214 212 211 210 212 213 212 211 213 217 223 227 221 207 200 201 203 204 205 204 204 206 208 209 210 210 209 208 208 211 212 211 212 217 220 218 216 216 219 221 224 231 238 239 239 240 237 232 233 238 240 232 221 217 220 224 227 229 229 228 229 231 230 230 232
223 224 225 223 220 217 217 220 222 221 220 218 216 213 212 211 212 214 215 214 210 207 206 206 208 209 208 208 211 218 224 226 220 210 207 207 204 202 202 201 200 202 204 207 211 212 210 207 205 204 206 206 209 214 219 218 212 210 217 223 225 230 234 232 234 244 245 235 229 231 234 237 232 223 221 224 226 228 228 224 224 226 225 226 230
228 224 226 227 223 219 218 221 223 225 223 219 215 213 213 213 215 215 213 211 210 209 209 209 208 207 206 207 213 219 222 222 219 216 215 211 206 203 202 201 202 202 202 205 210 212 210 208 207 204 203 207 212 215 218 220 218 213 214 220 226 231 232 230 232 236 234 231 233 230 226 231 236 231 227 227 228 230 229 225 224 226 226 225 228
239 228 225 225 224 222 223 224 226 227 224 218 214 213 215 218 220 219 216 214 214 213 212 211 209 208 209 210 213 217 219 220 220 220 219 214 210 207 207 207 206 204 204 206 209 210 209 210 210 207 203 204 212 219 222 224 223 220 222 225 223 220 221 224 226 226 227 234 243 236 222 222 229 232 232 233 233 234 234 231 228 230 231 231 231
29 266 235 235 238 237 234 234 234 233 227 219 216 215 214 215 219 220 220 220 219 216 214 213 210 209 210 213 215 215 216 217 217 216 216 213 211 209 210 211 211 208 207 209 211 211 212 214 214 212 209 206 208 215 223 225 221 218 224 228 220 214 220 226 228 229 233 238 239 232 223 222 226 229 233 236 236 236 235 233 231 233 235 236 236
26 9 334 260 247 240 235 233 232 229 224 220 220 219 217 216 218 218 218 220 220 219 217 217 215 214 217 220 218 215 213 213 211 210 210 211 211 211 210 211 212 210 210 212 213 213 215 217 217 217 216 213 212 213 217 221 222 218 218 221 223 226 230 229 225 226 230 232 229 226 225 225 226 228 232 236 237 236 234 232 232 234 236 238 240
5 351 329 301 258 241 237 236 233 227 224 224 225 225 226 226 225 222 220 220 220 219 220 223 225 225 227 227 222 216 212 211 210 210 210 210 210 210 210 211 212 211 212 213 214 215 216 217 216 216 215 215 215 214 214 216 220 223 224 226 230 232 228 220 218 221 224 224 225 225 226 228 231 233 235 237 238 238 237 236 237 238 239 239 239
360 346 321 316 294 236 234 237 239 238 236 235 234 234 235 234 231 227 224 223 222 222 223 228 231 232 233 233 229 222 217 213 210 210 211 211 210 208 209 211 211 211 211 213 214 216 217 215 212 212 213 214 213 213 213 215 219 225 230 230 227 225 220 215 217 223 225 225 226 227 230 235 238 237 238 241 241 240 239 239 239 238 238 238 236
5 354 340 343 360 277 237 236 237 239 240 240 237 234 232 231 230 227 224 223 225 226 228 231 232 232 233 234 231 226 220 216 212 210 211 212 211 210 210 211 210 210 211 212 213 215 216 214 209 207 211 215 215 210 211 217 220 223 226 225 221 219 219 219 221 224 226 227 228 229 232 236 239 241 244 245 242 238 237 238 238 238 237 237 236
11 3 352 348 350 338 302 265 249 243 242 241 238 233 230 230 230 231 230 230 230 232 234 235 234 233 233 233 230 224 220 217 214 212 213 213 212 212 212 211 210 210 210 211 212 214 215 216 215 212 210 214 215 210 209 215 220 219 219 221 219 216 218 221 223 225 228 232 235 236 237 238 240 244 246 243 239 236 234 234 237 238 237 235 235
19 16 11 5 355 346 339 330 311 286 264 253 247 242 240 239 238 238 239 238 238 238 239 238 235 234 233 231 226 221 219 217 215 214 215 215 213 213 213 213 211 210 209 210 213 216 216 218 220 217 213 214 216 213 211 214 216 215 216 218 218 217 219 222 224 227 233 239 241 243 246 245 241 240 241 240 238 237 234 233 235 236 236 234 233
23 23 22 22 22 17 9 359 343 325 303 282 270 260 255 251 248 245 242 239 236 234 232 231 231 233 234 232 226 220 218 217 216 216 216 215 214 214 214 214 212 209 208 210 213 216 217 218 218 215 212 213 216 216 213 211 211 213 216 218 221 224 227 229 228 230 235 241 244 246 249 247 240 236 237 238 238 238 237 235 233 232 233 233 231
19 21 20 21 23 22 22 26 18 355 329 310 294 278 268 263 256 251 246 242 238 234 230 228 228 231 234 234 230 223 218 218 218 217 216 215 216 216 215 214 212 210 209 210 211 211 212 214 213 209 207 208 211 214 214 212 212 216 219 221 225 229 233 234 235 234 236 240 243 245 245 243 240 238 237 236 238 240 241 238 235 232 231 232 231
11 11 11 13 18 17 14 19 26 23 8 349 330 305 287 276 266 258 252 248 246 246 242 237 235 234 235 236 235 228 220 218 220 220 217 217 218 218 216 212 209 207 206 207 206 203 202 203 206 207 207 207 210 215 217 216 217 218 220 222 227 231 232 235 238 240 240 241 242 240 239 241 242 242 238 234 234 238 240 240 238 236 233 232 233
13 10 5 1 5 12 15 18 24 30 27 13 355 332 311 295 283 274 265 254 249 247 243 239 239 239 238 241 242 234 222 218 220 221 219 218 219 218 214 210 206 204 203 203 203 200 198 199 205 211 212 212 213 215 215 216 217 218 219 223 229 234 237 240 243 246 248 248 242 237 236 238 240 241 240 236 233 234 235 235 236 236 234 232 232
12 11 10 6 2 3 8 11 16 25 31 27 15 355 333 316 301 291 280 264 254 249 244 241 241 239 238 242 244 232 219 215 220 221 220 219 219 215 210 207 205 204 202 203 204 206 207 208 213 218 219 217 215 213 212 213 217 220 223 227 229 232 236 241 244 247 252 254 247 237 232 229 228 232 239 243 242 235 228 226 229 235 238 234 231
8 6 9 10 9 7 5 3 6 14 24 32 36 35 27 13 351 331 317 292 273 265 257 253 249 243 239 242 237 221 211 212 219 218 215 214 213 210 207 206 205 204 204 206 210 214 214 214 217 221 224 223 220 217 215 216 219 224 228 229 228 228 231 235 238 240 242 244 244 242 236 228 223 224 229 236 241 240 230 222 222 226 233 236 235
12 10 8 5 4 8 11 11 17 26 30 36 46 52 57 66 71 68 67 70 67 59 46 300 267 251 246 246 231 213 207 210 214 213 210 207 204 203 203 203 203 203 205 208 212 214 216 217 222 228 231 229 226 223 221 221 224 227 227 222 221 224 228 230 233 235 233 232 235 240 240 236 230 227 226 226 229 233 234 230 226 225 228 232 235
Height
1450 1456 1461 1465 1469 1472 1475 1477 1479 1481 1483 1484 1485 1487 1489 1492 1494 1496 1498 1500 1503 1505 1507 1509 1511 1513 1515 1517 1519 1521 1523 1524 1525 1526 1527 1528 1529 1530 1532 1533 1534 1535 1537 1538 1539 1540 1541 1542 1544 1545 1546 1547 1548 1548 1548 1549 1550 1550 1551 1552 1553 1553 1554 1556 1557 1558 1558 1558 1560 1560 1559 1559 1560 1560 1560 1559 1560 1560 1560 1560 1559 1559 1559 1558 1558
1448 1453 1458 1462 1466 1469 1471 1473 1476 1478 1479 1480 1481 1484 1486 1488 1491 1493 1495 1498 1501 1503 1505 1507 1509 1511 1513 1514 1517 1519 1521 1522 1523 1524 1525 1526 1527 1528 1529 1530 1532 1533 1534 1535 1536 1537 1539 1540 1541 1542 1543 1544 1545 1546 1546 1547 1547 1548 1548 1550 1551 1552 1552 1554 1556 1556 1556 1557 1558 1558 1558 1558 1559 1560 1560 1559 1559 1559 1559 1559 1558 1558 1558 1557 1557
1446 1451 1455 1459 1462 1466 1468 1470 1472 1475 1476 1477 1478 1480 1483 1485 1488 1490 1492 1495 1498 1501 1503 1505 1507 1509 1510 1512 1514 1516 1518 1520 1521 1522 1523 1524 1525 1526 1526 1528 1529 1531 1532 1532 1533 1535 1536 1536 1537 1538 1540 1540 1541 1543 1544 1544 1545 1545 1546 1548 1549 1550 1551 1553 1554 1555 1555 1555 1556 1556 1557 1558 1558 1559 1559 1559 1558 1558 1558 1558 1558 1558 1558 1558 1557
1445 1448 1452 1455 1459 1462 1464 1466 1469 1471 1472 1473 1474 1477 1480 1482 1485 1487 1489 1492 1495 1498 1501 1503 1505 1506 1508 1510 1511 1514 1516 1518 1519 1520 1521 1522 1523 1524 1524 1525 1527 1528 1529 1530 1531 1532 1533 1534 1535 1536 1537 1538 1539 1541 1542 1543 1543 1544 1545 1547 1548 1549 1549 1551 1553 1553 1553 1553 1554 1555 1555 1556 1557 1557 1558 1558 1557 1557 1558 1558 1558 1558 1558 1558 1557
1443 1445 1449 1452 1455 1457 1460 1462 1464 1467 1469 1470 1472 1475 1477 1479 1482 1484 1486 1489 1492 1496 1499 1501 1502 1504 1505 1507 1509 1511 1513 1515 1517 1518 1520 1521 1521 1522 1523 1523 1524 1525 1527 1528 1529 1529 1530 1532 1533 1533 1534 1535 1537 1538 1540 1541 1542 1543 1545 1546 1547 1548 1548 1549 1551 1552 1552 1551 1552 1554 1554 1554 1555 1556 1557 1557 1556 1556 1556 1556 1556 1556 1556 1556 1555
1440 1443 1446 1448 1450 1453 1455 1457 1460 1462 1465 1467 1470 1472 1474 1476 1479 1481 1483 1486 1489 1493 1495 1498 1500 1501 1503 1505 1507 1509 1511 1512 1514 1516 1517 1518 1519 1520 1520 1521 1522 1523 1524 1526 1527 1528 1528 1530 1531 1531 1532 1534 1535 1537 1538 1539 1540 1542 1543 1545 1545 1546 1546 1547 1549 1550 1551 1550 1551 1552 1553 1552 1553 1554 1555 1555 1555 1555 1555 1555 1554 1554 1554 1554 1554
1436 1440 1442 1444 1446 1448 1450 1452 1456 1459 1461 1464 1467 1469 1471 1474 1476 1478 1480 1483 1486 1489 1492 1495 1497 1499 1501 1503 1505 1507 1508 1510 1512 1513 1515 1516 1517 1518 1518 1518 1519 1520 1522 1524 1525 1526 1526 1528 1529 1529 1530 1532 1533 1535 1536 1537 1538 1540 1541 1543 1544 1544 1544 1545 1547 1548 1549 1550 1550 1550 1551 1551 1552 1552 1553 1554 1554 1554 1554 1554 1554 1553 1553 1554 1554
1433 1436 1438 1439 1441 1443 1446 1449 1452 1455 1458 1461 1463 1466 1469 1471 1473 1475 1478 1480 1482 1485 1489 1492 1495 1497 1499 1500 1502 1504 1506 1507 1508 1510 1512 1513 1514 1515 1516 1516 1517 1518 1520 1522 1523 1524 1525 1526 1527 1528 1529 1530 1531 1533 1534 1535 1537 1538 1539 1541 1542 1542 1542 1543 1545 1546 1547 1548 1549 1549 1549 1550 1550 1551 1551 1552 1552 1552 1552 1553 1553 1553 1553 1553 1553
1429 1433 1434 1435 1436 1439 1442 1445 1449 1452 1455 1457 1460 1463 1466 1468 1470 1472 1475 1477 1479 1482 1486 1489 1492 1494 1496 1498 1500 1502 1502 1504 1505 1507 1509 1511 1512 1513 1513 1513 1514 1516 1517 1519 1521 1522 1523 1524 1525 1526 1527 1528 1529 1531 1532 1533 1535 1536 1537 1538 1540 1540 1540 1541 1543 1544 1544 1546 1547 1547 1547 1548 1548 1549 1549 1550 1550 1551 1550 1551 1551 1552 1552 1552 1552
1425 1429 1431 1431 1432 1435 1438 1442 1445 1449 1451 1453 1456 1459 1463 1465 1467 1469 1471 1474 1477 1479 1483 1486 1488 1490 1493 1495 1497 1498 1499 1500 1502 1504 1506 1508 1509 1510 1510 1510 1512 1513 1515 1517 1518 1520 1521 1522 1523 1524 1525 1526 1527 1529 1530 1531 1533 1534 1535 1536 1537 1537 1538 1539 1541 1541 1542 1543 1544 1545 1546 1547 1547 1547 1547 1548 1549 1549 1549 1549 1549 1550 1550 1550 1551
1421 1425 1428 1428 1429 1432 1434 1438 1441 1445 1447 1450 1452 1455 1459 1462 1464 1466 1468 1471 1474 1476 1479 1483 1484 1487 1489 1492 1494 1495 1496 1497 1498 1501 1504 1506 1507 1507 1507 1508 1510 1511 1513 1515 1516 1518 1519 1520 1521 1522 1523 1524 1525 1527 1528 1529 1531 1532 1533 1534 1535 1536 1537 1538 1538 1539 1540 1541 1542 1543 1544 1545 1545 1545 1546 1546 1547 1547 1547 1547 1548 1548 1548 1548 1549
1419 1422 1425 1427 1427 1428 1431 1434 1438 1441 1444 1446 1448 1452 1455 1458 1460 1463 1465 1468 1470 1472 1475 1479 1481 1483 1486 1489 1490 1492 1492 1493 1496 1498 1501 1504 1505 1504 1505 1506 1507 1509 1511 1512 1514 1516 1516 1517 1519 1520 1521 1522 1523 1524 1526 1527 1529 1530 1531 1532 1533 1534 1535 1536 1536 1537 1538 1539 1541 1542 1542 1543 1544 1544 1544 1544 1545 1545 1546 1546 1546 1546 1546 1546 1547
1416 1418 1421 1425 1425 1426 1429 1431 1434 1437 1440 1443 1445 1449 1452 1454 1456 1459 1462 1465 1467 1469 1471 1475 1478 1480 1483 1485 1487 1487 1489 1491 1493 1495 1498 1500 1502 1502 1503 1504 1505 1506 1508 1510 1512 1513 1514 1515 1516 1518 1518 1520 1521 1522 1524 1525 1527 1528 1529 1530 1532 1533 1534 1534 1535 1535 1536 1538 1539 1540 1541 1541 1542 1542 1542 1542 1543 1543 1544 1544 1544 1544 1545 1545 1545
1413 1415 1418 1421 1423 1424 1426 1428 1431 1434 1437 1440 1442 1445 1448 1450 1452 1456 1459 1462 1464 1465 1468 1471 1475 1477 1479 1481 1483 1483 1485 1487 1490 1492 1494 1497 1499 1500 1501 1502 1503 1504 1506 1508 1509 1511 1511 1512 1514 1515 1516 1517 1519 1520 1521 1523 1525 1526 1527 1528 1530 1531 1531 1532 1533 1534 1535 1537 1538 1538 1538 1539 1540 1540 1539 1540 1542 1542 1543 1543 1543 1543 1543 1544 1544
1410 1412 1414 1417 1419 1422 1423 1425 1427 1430 1433 1436 1439 1441 1444 1446 1449 1452 1455 1458 1460 1462 1464 1468 1471 1473 1476 1477 1479 1480 1481 1484 1486 1488 1490 1493 1496 1498 1499 1499 1500 1502 1504 1505 1507 1508 1509 1510 1511 1513 1514 1515 1517 1518 1519 1521 1523 1524 1525 1526 1528 1529 1529 1530 1531 1532 1534 1535 1535 1536 1536 1536 1537 1537 1538 1539 1540 1541 1542 1542 1542 1542 1542 1543 1543
1409 1410 1412 1414 1416 1418 1421 1422 1424 1426 1430 1432 1435 1437 1440 1442 1445 1448 1451 1454 1457 1459 1461 1464 1467 1470 1472 1474 1475 1476 1477 1480 1482 1484 1487 1490 1493 1496 1497 1497 1498 1499 1501 1503 1504 1506 1507 1508 1509 1510 1511 1513 1514 1515 1517 1519 1521 1522 1523 1524 1525 1526 1527 1528 1529 1530 1531 1532 1533 1534 1534 1534 1534 1536 1537 1538 1539 1540 1540 1541 1541 1541 1541 1542 1542
1408 1410 1410 1411 1413 1416 1418 1420 1422 1424 1427 1429 1431 1433 1436 1438 1441 1444 1448 1450 1452 1454 1457 1460 1464 1466 1469 1470 1471 1471 1473 1476 1479 1481 1483 1486 1489 1492 1493 1494 1495 1497 1498 1500 1502 1503 1504 1505 1506 1507 1509 1510 1512 1513 1514 1517 1519 1520 1521 1522 1522 1523 1524 1526 1527 1528 1529 1529 1530 1532 1532 1532 1533 1534 1536 1537 1538 1538 1539 1539 1539 1540 1540 1540 1540
1405 1406 1407 1409 1411 1413 1415 1417 1419 1421 1424 1426 1428 1430 1432 1435 1437 1440 1443 1446 1448 1451 1454 1457 1461 1463 1465 1466 1467 1467 1469 1472 1474 1477 1479 1483 1486 1488 1490 1491 1492 1494 1496 1497 1499 1500 1502 1503 1504 1505 1506 1508 1510 1511 1512 1514 1516 1517 1518 1519 1519 1520 1521 1523 1524 1525 1526 1527 1528 1529 1530 1530 1531 1532 1534 1535 1535 1536 1537 1537 1538 1538 1538 1538 1539
1400 1402 1403 1405 1407 1410 1412 1413 1414 1417 1420 1423 1425 1427 1429 1431 1434 1437 1440 1443 1445 1448 1451 1454 1457 1459 1461 1463 1464 1464 1465 1468 1471 1473 1476 1479 1482 1485 1487 1488 1489 1491 1492 1494 1496 1498 1499 1501 1502 1503 1504 1505 1507 1508 1510 1512 1513 1514 1515 1516 1516 1517 1519 1520 1521 1522 1523 1524 1525 1526 1528 1529 1530 1530 1531 1532 1533 1534 1535 1536 1536 1536 1537 1537 1537
1397 1398 1399 1401 1403 1405 1407 1409 1412 1415 1418 1419 1422 1424 1426 1429 1431 1434 1437 1440 1442 1445 1448 1451 1453 1455 1458 1460 1461 1460 1461 1463 1467 1469 1472 1475 1479 1482 1484 1485 1486 1487 1489 1491 1493 1495 1496 1498 1499 1500 1501 1502 1504 1506 1508 1510 1511 1511 1512 1512 1513 1515 1516 1517 1519 1521 1522 1523 1524 1524 1525 1527 1528 1528 1529 1529 1530 1531 1533 1534 1534 1535 1535 1535 1536
1395 1395 1396 1397 1399 1401 1403 1406 1410 1415 1416 1417 1419 1422 1424 1426 1428 1430 1433 1436 1438 1441 1444 1447 1449 1451 1454 1456 1457 1456 1457 1459 1462 1466 1469 1472 1475 1478 1481 1482 1483 1484 1486 1488 1490 1492 1493 1494 1496 1498 1499 1500 1502 1504 1506 1508 1509 1509 1509 1510 1511 1513 1514 1514 1516 1518 1520 1520 1521 1522 1523 1524 1525 1526 1526 1527 1528 1529 1530 1532 1532 1533 1533 1534 1534
1391 1392 1393 1394 1395 1397 1400 1402 1406 1410 1412 1414 1416 1418 1420 1422 1424 1426 1429 1431 1434 1437 1439 1442 1445 1447 1450 1452 1453 1453 1454 1456 1459 1462 1465 1468 1471 1474 1477 1479 1480 1481 1483 1484 1486 1488 1490 1491 1493 1495 1497 1498 1500 1501 1504 1506 1506 1506 1507 1508 1510 1512 1513 1513 1513 1516 1517 1518 1518 1519 1520 1521 1522 1523 1523 1524 1526 1527 1528 1529 1530 1530 1531 1532 1532
1388 1389 1389 1390 1391 1393 1396 1399 1401 1403 1405 1408 1411 1413 1415 1418 1420 1422 1424 1427 1429 1432 1435 1437 1441 1443 1446 1448 1449 1449 1450 1453 1455 1458 1461 1464 1467 1471 1474 1476 1477 1478 1479 1481 1483 1485 1487 1487 1489 1493 1495 1496 1498 1499 1501 1503 1504 1504 1505 1506 1508 1510 1511 1512 1512 1513 1514 1515 1515 1516 1517 1518 1519 1520 1521 1522 1523 1525 1526 1527 1527 1528 1528 1529 1530
1384 1384 1384 1386 1388 1391 1392 1394 1396 1397 1399 1402 1405 1408 1410 1413 1415 1417 1419 1422 1424 1427 1430 1433 1436 1439 1441 1443 1444 1445 1446 1449 1452 1455 1458 1461 1464 1467 1470 1473 1474 1475 1476 1478 1480 1482 1484 1484 1486 1489 1492 1494 1495 1496 1498 1500 1500 1501 1503 1504 1506 1507 1509 1510 1511 1511 1512 1512 1512 1513 1515 1516 1517 1518 1518 1520 1521 1522 1523 1524 1525 1526 1526 1527 1527
1379 1380 1380 1381 1384 1387 1389 1390 1391 1392 1393 1396 1398 1402 1405 1407 1410 1412 1414 1417 1419 1422 1425 1428 1430 1433 1435 1437 1439 1440 1442 1445 1448 1451 1455 1458 1461 1464 1467 1469 1471 1472 1473 1475 1477 1479 1481 1482 1484 1487 1489 1491 1492 1493 1495 1496 1497 1499 1500 1502 1504 1505 1507 1508 1509 1509 1510 1510 1510 1511 1512 1514 1515 1516 1517 1518 1519 1520 1520 1522 1523 1523 1524 1524 1525
1373 1375 1376 1376 1379 1382 1384 1385 1386 1387 1389 1391 1393 1396 1398 1400 1403 1406 1408 1411 1414 1416 1419 1422 1425 1428 1430 1433 1435 1436 1438 1441 1444 1447 1451 1454 1457 1460 1463 1465 1468 1469 1470 1472 1474 1476 1478 1480 1482 1484 1486 1488 1489 1490 1492 1493 1494 1496 1498 1499 1501 1502 1504 1505 1506 1506 1507 1508 1508 1509 1510 1512 1513 1514 1515 1517 1518 1518 1519 1519 1520 1521 1521 1521 1522
1367 1369 1370 1371 1374 1378 1380 1381 1382 1383 1385 1387 1389 1391 1394 1396 1398 1400 1402 1405 1408 1411 1414 1416 1419 1422 1425 1428 1430 1431 1433 1436 1439 1442 1445 1448 1452 1455 1458 1461 1463 1465 1467 1469 1471 1472 1475 1477 1479 1481 1483 1485 1487 1488 1489 1490 1491 1493 1494 1496 1497 1499 1500 1502 1503 1503 1504 1505 1506 1507 1508 1510 1511 1512 1513 1514 1516 1517 1517 1518 1518 1518 1519 1520 1521
1362 1363 1363 1364 1370 1376 1379 1380 1380 1380 1381 1383 1385 1386 1389 1391 1393 1394 1395 1398 1400 1403 1406 1409 1412 1414 1417 1421 1423 1425 1427 1429 1431 1433 1436 1439 1444 1449 1452 1455 1458 1461 1463 1465 1467 1469 1472 1474 1476 1478 1480 1481 1483 1484 1485 1486 1488 1489 1491 1493 1494 1496 1497 1499 1500 1501 1501 1502 1504 1505 1506 1507 1509 1510 1511 1512 1513 1514 1515 1516 1516 1517 1518 1519 1519
1357 1358 1358 1359 1364 1371 1374 1377 1379 1379 1378 1380 1381 1382 1383 1385 1387 1389 1391 1394 1396 1398 1401 1403 1406 1408 1411 1414 1415 1417 1418 1419 1421 1426 1430 1434 1438 1442 1445 1448 1453 1456 1458 1460 1462 1465 1467 1469 1471 1473 1475 1477 1478 1480 1481 1482 1484 1486 1488 1489 1491 1492 1494 1495 1496 1497 1498 1500 1501 1502 1504 1505 1506 1507 1508 1509 1510 1511 1512 1513 1514 1515 1516 1517 1517
1351 1354 1355 1356 1360 1364 1368 1373 1378 1377 1376 1376 1378 1380 1382 1384 1386 1388 1390 1392 1394 1397 1399 1401 1403 1406 1408 1409 1410 1410 1410 1413 1418 1424 1429 1433 1437 1439 1442 1445 1449 1452 1454 1456 1459 1461 1463 1465 1467 1469 1471 1473 1475 1476 1478 1479 1481 1482 1484 1486 1487 1489 1490 1491 1492 1493 1495 1496 1498 1499 1501 1502 1503 1505 1506 1507 1508 1509 1509 1510 1511 1513 1513 1514 1514
1346 1348 1350 1352 1355 1358 1363 1369 1374 1376 1374 1374 1375 1377 1379 1382 1385 1387 1388 1390 1392 1394 1397 1399 1402 1404 1406 1407 1409 1410 1411 1413 1418 1423 1427 1431 1435 1438 1440 1443 1447 1450 1451 1453 1456 1458 1459 1461 1463 1466 1468 1470 1471 1473 1475 1476 1478 1479 1480 1482 1484 1485 1486 1487 1488 1490 1492 1493 1494 1496 1497 1499 1501 1502 1504 1505 1506 1506 1507 1508 1509 1510 1510 1511 1511
1342 1344 1346 1348 1352 1355 1358 1363 1368 1371 1372 1371 1371 1373 1376 1378 1381 1383 1385 1387 1389 1392 1394 1396 1398 1402 1404 1406 1408 1409 1409 1411 1415 1420 1423 1427 1431 1434 1437 1440 1444 1448 1449 1451 1453 1454 1456 1458 1460 1462 1464 1466 1468 1470 1472 1473 1475 1476 1477 1478 1480 1481 1483 1483 1485 1486 1488 1489 1491 1492 1494 1496 1498 1500 1501 1502 1503 1504 1505 1505 1506 1507 1508 1509 1509
1339 1341 1342 1345 1348 1351 1355 1359 1363 1367 1369 1368 1367 1369 1371 1373 1376 1379 1382 1384 1387 1389 1391 1393 1395 1398 1402 1404 1405 1406 1407 1409 1414 1418 1420 1422 1425 1429 1432 1436 1441 1444 1446 1447 1449 1451 1453 1455 1457 1458 1460 1462 1464 1467 1469 1471 1473 1474 1475 1476 1477 1478 1480 1481 1482 1483 1485 1486 1487 1489 1491 1493 1495 1497 1498 1499 1500 1501 1502 1503 1504 1504 1505 1506 1507
1337 1339 1340 1341 1343 1346 1351 1356 1360 1363 1365 1365 1364 1364 1367 1369 1373 1376 1379 1381 1384 1386 1388 1390 1392 1395 1398 1400 1402 1404 1405 1408 1413 1417 1418 1419 1421 1425 1429 1433 1437 1440 1442 1444 1446 1448 1449 1451 1453 1455 1457 1459 1462 1464 1466 1469 1471 1472 1473 1474 1475 1476 1477 1478 1479 1480 1482 1483 1485 1486 1487 1489 1491 1493 1495 1496 1497 1498 1499 1500 1501 1502 1503 1503 1504
1336 1338 1339 1341 1343 1345 1347 1351 1356 1359 1361 1361 1361 1362 1364 1367 1370 1373 1376 1378 1380 1381 1383 1385 1388 1390 1393 1396 1399 1401 1403 1406 1410 1414 1416 1418 1420 1423 1427 1430 1432 1434 1436 1439 1442 1444 1445 1447 1449 1452 1455 1457 1460 1462 1464 1466 1468 1470 1471 1472 1473 1474 1475 1476 1476 1477 1478 1480 1482 1483 1484 1486 1487 1489 1491 1492 1494 1495 1496 1497 1499 1499 1500 1501 1502
1336 1338 1340 1341 1343 1345 1347 1349 1353 1357 1358 1358 1358 1359 1362 1365 1368 1371 1373 1376 1378 1379 1381 1383 1385 1387 1390 1393 1396 1398 1400 1403 1407 1411 1413 1415 1417 1419 1421 1423 1425 1427 1430 1434 1437 1440 1442 1444 1447 1450 1453 1455 1458 1459 1461 1463 1465 1467 1469 1471 1471 1472 1473 1474 1474 1475 1476 1477 1478 1480 1482 1483 1484 1486 1487 1489 1490 1492 1493 1494 1496 1496 1497 1499 1500
1336 1338 1339 1341 1343 1346 1347 1349 1352 1355 1356 1356 1356 1357 1359 1362 1366 1369 1371 1373 1375 1376 1378 1380 1382 1385 1388 1390 1393 1396 1398 1400 1403 1406 1409 1412 1414 1415 1416 1417 1420 1423 1426 1430 1434 1437 1441 1444 1446 1448 1451 1453 1456 1457 1459 1461 1463 1465 1467 1468 1470 1470 1471 1472 1473 1474 1474 1475 1476 1477 1479 1480 1481 1483 1484 1485 1487 1488 1490 1491 1493 1494 1495 1496 1497
1337 1338 1339 1341 1343 1345 1347 1349 1351 1353 1355 1356 1356 1355 1356 1358 1361 1364 1366 1368 1370 1372 1374 1377 1379 1381 1384 1387 1390 1392 1395 1397 1399 1401 1403 1406 1408 1410 1411 1413 1416 1419 1423 1426 1430 1434 1439 1442 1444 1446 1448 1451 1453 1455 1457 1459 1461 1463 1465 1466 1467 1468 1469 1470 1471 1472 1473 1473 1474 1475 1476 1477 1479 1480 1481 1482 1483 1485 1486 1488 1489 1490 1491 1492 1493
1337 1338 1339 1341 1343 1345 1347 1349 1351 1353 1354 1355 1355 1355 1355 1356 1358 1359 1361 1363 1365 1367 1370 1372 1375 1377 1380 1383 1386 1388 1390 1391 1391 1393 1395 1398 1401 1403 1406 1409 1412 1415 1418 1421 1425 1429 1433 1436 1439 1442 1444 1447 1450 1452 1454 1456 1458 1460 1461 1463 1464 1464 1465 1466 1467 1468 1469 1470 1471 1472 1473 1474 1476 1477 1478 1479 1480 1482 1483 1485 1486 1487 1488 1489 1490
1337 1339 1340 1342 1344 1346 1347 1349 1351 1352 1353 1354 1354 1355 1355 1356 1357 1358 1360 1361 1362 1364 1366 1368 1371 1374 1376 1379 1381 1383 1383 1383 1385 1386 1389 1392 1395 1398 1401 1403 1406 1409 1413 1417 1421 1424 1426 1428 1432 1436 1440 1443 1446 1449 1451 1453 1455 1456 1457 1459 1460 1461 1462 1463 1464 1465 1466 1467 1468 1469 1470 1471 1472 1474 1474 1476 1477 1478 1480 1481 1483 1484 1485 1486 1487
1339 1340 1342 1343 1345 1347 1348 1349 1351 1352 1352 1353 1353 1353 1354 1354 1355 1357 1358 1359 1360 1361 1363 1365 1367 1369 1372 1374 1376 1377 1377 1377 1380 1383 1385 1388 1391 1393 1395 1397 1400 1404 1408 1412 1416 1419 1421 1423 1427 1431 1435 1439 1442 1445 1448 1450 1451 1452 1453 1455 1456 1458 1459 1460 1461 1462 1463 1464 1465 1466 1467 1468 1469 1470 1471 1472 1474 1475 1476 1477 1479 1480 1481 1483 1484
1343 1343 1344 1344 1345 1347 1348 1349 1350 1351 1351 1352 1352 1351 1352 1352 1353 1354 1355 1356 1357 1358 1360 1361 1362 1364 1366 1369 1372 1374 1374 1375 1376 1379 1382 1386 1388 1390 1391 1393 1396 1399 1403 1407 1410 1414 1417 1420 1423 1427 1432 1435 1438 1441 1444 1446 1447 1448 1450 1451 1453 1454 1455 1456 1457 1458 1459 1461 1462 1463 1464 1465 1466 1467 1468 1469 1470 1471 1473 1474 1475 1477 1478 1479 1481
1346 1346 1346 1346 1346 1346 1347 1348 1348 1349 1350 1350 1350 1350 1350 1350 1351 1352 1353 1354 1355 1356 1357 1358 1358 1359 1361 1364 1369 1372 1373 1374 1375 1377 1380 1382 1385 1387 1388 1390 1392 1395 1399 1403 1407 1410 1415 1419 1422 1426 1429 1432 1434 1437 1440 1442 1443 1445 1447 1448 1450 1451 1452 1453 1454 1455 1455 1457 1458 1460 1461 1462 1463 1463 1465 1466 1467 1468 1469 1470 1471 1473 1474 1476 1477
1349 1348 1348 1347 1347 1346 1346 1347 1347 1347 1347 1348 1348 1349 1349 1349 1350 1350 1351 1352 1353 1353 1354 1355 1355 1356 1357 1360 1364 1367 1368 1370 1372 1374 1376 1379 1382 1384 1385 1387 1390 1393 1396 1400 1404 1408 1411 1415 1419 1423 1427 1429 1431 1433 1436 1438 1440 1442 1444 1445 1447 1448 1448 1449 1450 1451 1452 1453 1455 1456 1457 1458 1459 1460 1461 1462 1464 1465 1466 1467 1468 1469 1470 1472 1473
1350 1350 1350 1349 1348 1347 1347 1346 1346 1346 1345 1345 1346 1346 1347 1347 1348 1348 1349 1349 1350 1351 1352 1352 1353 1354 1355 1356 1359 1361 1363 1366 1368 1370 1372 1375 1379 1381 1383 1385 1388 1391 1394 1398 1402 1405 1408 1411 1414 1419 1423 1425 1427 1429 1432 1434 1436 1438 1440 1441 1443 1444 1444 1445 1446 1448 1450 1450 1451 1453 1454 1455 1456 1457 1458 1459 1460 1461 1462 1464 1465 1466 1467 1468 1470
1352 1352 1351 1350 1349 1348 1347 1346 1346 1345 1344 1344 1344 1344 1345 1345 1346 1346 1347 1347 1348 1349 1351 1351 1352 1353 1354 1355 1356 1358 1359 1362 1364 1366 1369 1373 1377 1379 1381 1384 1386 1389 1393 1396 1398 1401 1404 1407 1411 1415 1418 1421 1424 1426 1428 1430 1432 1434 1436 1437 1439 1440 1441 1442 1443 1444 1446 1447 1448 1449 1450 1451 1452 1453 1454 1456 1457 1458 1459 1460 1461 1462 1463 1465 1466
1355 1354 1353 1351 1350 1349 1348 1347 1346 1345 1344 1343 1343 1343 1343 1344 1344 1345 1346 1346 1347 1348 1349 1350 1351 1352 1353 1354 1356 1357 1358 1359 1361 1363 1366 1371 1374 1377 1380 1382 1384 1388 1391 1393 1396 1399 1401 1404 1408 1412 1415 1418 1421 1422 1424 1427 1429 1430 1432 1433 1435 1437 1438 1439 1440 1440 1441 1442 1443 1444 1445 1447 1448 1449 1451 1452 1454 1454 1455 1456 1457 1458 1460 1461 1462
1357 1356 1354 1353 1352 1351 1349 1348 1347 1345 1344 1343 1343 1343 1343 1344 1344 1344 1345 1345 1346 1347 1348 1349 1350 1351 1352 1353 1356 1357 1359 1359 1359 1361 1364 1367 1370 1374 1378 1381 1383 1386 1388 1390 1393 1397 1400 1403 1407 1411 1413 1415 1417 1419 1421 1423 1425 1427 1428 1430 1431 1432 1434 1435 1436 1436 1437 1438 1439 1440 1442 1443 1445 1446 1447 1449 1450 1451 1451 1452 1453 1455 1456 1457 1459
1359 1358 1357 1355 1353 1352 1351 1350 1348 1347 1346 1345 1344 1344 1344 1344 1344 1344 1344 1345 1346 1347 1348 1349 1350 1350 1351 1352 1355 1357 1359 1360 1360 1361 1362 1365 1368 1371 1375 1378 1381 1385 1386 1387 1390 1393 1398 1401 1405 1408 1410 1412 1414 1415 1417 1419 1422 1424 1426 1428 1429 1429 1430 1431 1432 1433 1433 1434 1435 1437 1439 1441 1442 1443 1444 1445 1446 1448 1448 1449 1450 1452 1453 1454 1455
1361 1360 1358 1357 1354 1353 1352 1351 1350 1349 1348 1347 1346 1346 1345 1345 1345 1344 1345 1345 1346 1347 1348 1349 1350 1350 1351 1352 1354 1356 1358 1360 1361 1362 1363 1364 1365 1369 1372 1375 1378 1382 1384 1387 1389 1392 1396 1399 1401 1403 1405 1407 1410 1412 1414 1417 1419 1422 1424 1425 1426 1427 1428 1428 1429 1429 1430 1431 1432 1434 1436 1438 1440 1441 1442 1443 1443 1444 1445 1446 1448 1449 1450 1451 1452
1362 1361 1360 1358 1356 1355 1354 1353 1352 1351 1351 1350 1349 1348 1348 1347 1346 1346 1346 1347 1348 1348 1349 1349 1349 1350 1351 1352 1354 1356 1358 1360 1362 1364 1365 1365 1366 1368 1371 1374 1377 1380 1383 1386 1389 1391 1394 1397 1399 1401 1402 1405 1407 1410 1413 1415 1417 1419 1421 1422 1423 1424 1425 1426 1427 1427 1428 1429 1430 1432 1433 1435 1437 1439 1440 1440 1441 1442 1443 1444 1445 1446 1447 1448 1449